Showing default

QIANFAN-20, 61553

Orbit data source: Space-Track

QIANFAN-20, 61553 is a Chinese payload satellite in LEO that was launched on Tue, 15 Oct 2024 UTC via a CHANG ZHENG 6A launch vehicle from the Taiyaun Space Center, China (TSC). Payload-class satellites include a variety of spacecraft equipped with specific instruments for various scientific and technological missions. These include communications satellites like Starlink; space stations such as the ISS; scientific satellites like the Hubble; Earth observation satellites from companies like Planet Labs, Umbra, and HawkEye 360; GPS; miniature CubeSats for education and research; and military/defense satellites.

Loading next visibility...
Identifier
61553, 2024-185B
Orbit
LEO
Country
Flag of CNCN / PRC
Related business
Manufacturer
GESIH/SECM
Mission
Partially operational Commercial Communications
Bus & Motor
QIANFAN, Unknown motor
Mass
267 kg wet, ~267 kg dry
Launch date (UTC)
2024-10-15 (1 year ago)
Launch vehicle
CHANG ZHENG 6A
Launch site
Taiyaun Space Center, China (TSC)
Object type
Payload
Rocket body
Debris
Shape & HBR
Box + 1 Pan, 5.0 m
Radar Cross Section
13.200 m², Large (>1 m²)

Expand to show TLE details & history
Last TLE update: 5 hours ago

TLE from 5 hours ago
0 QIANFAN-20
1 61553U 24185B   25310.74849242  .00000681  00000-0  38672-3 0  9995
2 61553  88.9796  82.3462 0007984  98.8415 261.3673 14.08780801 64428
Epoch: 2025-11-06T17:57Z
TLE epoch observation values (Epoch: 2025-11-06T17:57:49.745Z)
Latitude
-0.00001°
Longitude
126.68657°
Altitude
867.456 km
Speed
7.418 km/s
True Right ascension
05h 29m 23s
True Declination
0° 00' 00"
Sunlit
Object was in full shadow at epoch
Visualization orbit readout
Latitude
Unknown
Longitude
Unknown
Altitude
Unknown
Speed
Unknown
Apparent Right ascension
Unknown
Apparent Declination
Unknown
Sunlit
N/A
Visualization observer readout
Local Sidereal Time
19:29:46
Azimuth
Unknown
Elevation
Unknown
Doppler factor
Unknown
Orbital elements
Apogee altitude
866.294 km
Perigee altitude
854.735 km
Semi-major axis
7,238.651 km
Eccentricity
0.0008
Inclination
88.9796°
RAAN
82.3462°
Arg. of periapsis
98.8415°
True anomaly
261.27686°
Mean anomaly
261.3673°
Eccentric anomaly
261.32208°
Mean motion
3.52417 °/min
Orbital period
102.15 mins
BSTAR
0.00038672
Loading maneuver chart data...
Computing Atmospheric mass density...
Loading historical data...
Loading historical data...
Loading historical data...
Loading historical data...
Loading historical data...
Loading historical data...
Loading historical data...

Documentation

Showing up to 5 results
|